DW9029 Weather Reports


Display with metric or nautical units.
time (UTC)temp
F
wind
direction
speed
MPH
gust
MPH
rain 1hr
in
rain 24hr
in
rain mn
in
humidity
%
barometer
mb
20260508084405 64 195 1.0 7.0 0.00 0.00 0.00 66 1011.4
20260508083904 63 230 3.0 9.0 0.00 0.00 0.00 67 1011.4
20260508083404 63 191 5.0 12.0 0.00 0.00 0.00 68 1011.4
20260508081905 62 220 4.0 9.0 0.00 0.00 0.00 71 1011.5
20260508081405 62 224 1.0 6.0 0.00 0.00 0.00 74 1011.4
20260508080404 61 207 1.0 6.0 0.00 0.00 0.00 75 1011.4
20260508074904 61 215 0.0 0.0 0.00 0.00 0.00 75 1011.3
20260508073405 61 145 2.0 7.0 0.00 0.00 0.00 76 1011.1
20260508071905 60 138 2.0 5.0 0.00 0.00 0.00 77 1010.9
20260508064905 58 174 1.0 5.0 0.00 0.00 0.00 79 1010.9
20260508063905 58 156 2.0 5.0 0.00 0.00 0.00 80 1010.9
20260508063405 58 147 2.0 6.0 0.00 0.00 0.00 80 1010.8
20260508061905 57 172 0.0 2.0 0.00 0.00 0.00 81 1010.7
20260508061405 57 161 0.0 3.0 0.00 0.00 0.00 81 1010.8
20260508060904 57 181 0.0 0.0 0.00 0.00 0.00 80 1010.7
20260508060405 57 182 0.0 5.0 0.00 0.00 0.00 80 1010.6
20260508054404 57 192 0.0 1.0 0.00 0.00 0.00 81 1010.6
20260508053905 57 180 0.0 0.0 0.00 0.00 0.00 80 1010.5
20260508053404 57 180 0.0 0.0 0.00 0.00 0.00 80 1010.4
20260508051905 57 180 0.0 0.0 0.00 0.00 0.00 80 1010.1
20260508051405 57 182 0.0 0.0 0.00 0.00 0.00 80 1009.9
20260508050905 57 182 0.0 0.0 0.00 0.00 0.00 80 1009.9
20260508050405 57 182 0.0 5.0 0.00 0.00 0.00 79 1009.8
20260508044905 58 221 0.0 3.0 0.00 0.00 0.00 79 1009.8
20260508044404 58 201 0.0 2.0 0.00 0.00 0.00 79 1009.7
20260508043904 58 197 0.0 0.0 0.00 0.00 0.00 79 1009.6
20260508041905 58 202 0.0 3.0 0.00 0.00 0.00 79 1009.3
20260508041405 58 207 0.0 0.0 0.00 0.00 0.00 79 1009.5
20260508040905 58 209 0.0 1.0 0.00 0.00 0.00 79 1009.5
20260508034904 57 221 1.0 3.0 0.00 0.00 0.00 79 1009.7
20260508033905 57 188 0.0 0.0 0.00 0.00 0.00 79 1009.4
20260508033405 57 189 0.0 2.0 0.00 0.00 0.00 79 1009.4
20260508031904 57 175 0.0 0.0 0.00 0.00 0.00 79 1009.7
20260508031405 57 177 0.0 0.0 0.00 0.00 0.00 79 1009.6
20260508030905 57 178 0.0 0.0 0.00 0.00 0.00 79 1009.8
20260508024904 58 180 0.0 0.0 0.00 0.00 0.00 78 1009.9
20260508024405 58 180 0.0 1.0 0.00 0.00 0.00 78 1010.0
20260508023905 58 181 0.0 2.0 0.00 0.00 0.00 78 1009.8
20260508023405 58 188 0.0 3.0 0.00 0.00 0.00 78 1009.7
20260508021904 58 200 0.0 0.0 0.00 0.00 0.00 77 1009.9
20260508020904 58 204 1.0 5.0 0.00 0.00 0.00 77 1009.9
20260508020405 58 197 1.0 3.0 0.00 0.00 0.00 77 1009.8
20260508014905 59 189 0.0 5.0 0.00 0.00 0.00 76 1009.9
20260508014405 59 188 1.0 3.0 0.00 0.00 0.00 76 1009.9
20260508013905 59 193 0.0 0.0 0.00 0.00 0.00 76 1010.0
20260508013405 59 192 0.0 3.0 0.00 0.00 0.00 76 1010.1
20260508011905 59 210 1.0 3.0 0.00 0.00 0.00 76 1010.1
20260508011405 59 205 0.0 3.0 0.00 0.00 0.00 76 1010.1
20260508010904 59 204 0.0 1.0 0.00 0.00 0.00 76 1010.1
20260508004905 59 185 0.0 3.0 0.00 0.00 0.00 76 1010.3
20260508004405 59 203 0.0 3.0 0.00 0.00 0.00 76 1010.4
20260508003904 59 184 2.0 6.0 0.00 0.00 0.00 76 1010.3
20260508001905 60 166 1.0 5.0 0.00 0.00 0.00 77 1010.1
20260508001404 60 193 0.0 0.0 0.00 0.00 0.00 77 1010.0
20260508000905 60 196 1.0 3.0 0.00 0.00 0.00 76 1010.1
20260508000405 60 172 1.0 3.0 0.00 0.00 0.00 76 1010.1
20260507234905 60 185 0.0 3.0 0.00 0.00 0.00 76 1010.4
20260507234405 60 194 0.0 2.0 0.00 0.00 0.00 76 1010.4
20260507233905 60 183 0.0 0.0 0.00 0.00 0.00 76 1010.2
20260507233405 60 186 1.0 3.0 0.00 0.00 0.00 76 1010.2
20260507231905 60 188 0.0 0.0 0.00 0.00 0.00 75 1010.2
20260507231405 60 188 0.0 0.0 0.00 0.00 0.00 75 1010.2
20260507230905 60 188 0.0 0.0 0.00 0.00 0.00 75 1010.4
20260507230405 60 191 0.0 1.0 0.00 0.00 0.00 74 1010.5
20260507224905 60 192 0.0 0.0 0.00 0.00 0.00 74 1010.6
20260507224404 60 192 0.0 0.0 0.00 0.00 0.00 73 1010.7
20260507223905 61 198 1.0 5.0 0.00 0.00 0.00 73 1010.8
20260507223404 61 207 0.0 0.0 0.00 0.00 0.00 73 1010.8
20260507221905 61 178 1.0 3.0 0.00 0.00 0.00 72 1010.8
20260507221405 61 192 1.0 3.0 0.00 0.00 0.00 72 1010.9
20260507220405 61 180 0.0 5.0 0.00 0.00 0.00 71 1010.9
20260507214904 61 186 0.0 3.0 0.00 0.00 0.00 70 1010.8
20260507214405 61 176 0.0 0.0 0.00 0.00 0.00 69 1010.7
20260507213904 62 199 0.0 1.0 0.00 0.00 0.00 67 1010.7
20260507211904 62 190 0.0 5.0 0.00 0.00 0.00 64 1010.7
20260507210405 63 252 1.0 5.0 0.00 0.00 0.00 64 1010.5
20260507204905 63 269 1.0 5.0 0.00 0.00 0.00 63 1010.2
20260507204405 63 251 0.0 5.0 0.00 0.00 0.00 63 1010.2
20260507203905 63 255 2.0 7.0 0.00 0.00 0.00 63 1010.1
20260507201905 63 251 5.0 9.0 0.00 0.00 0.00 62 1010.0
20260507201404 63 257 1.0 6.0 0.00 0.00 0.00 62 1010.0
20260507200904 63 253 4.0 8.0 0.00 0.00 0.00 62 1010.0
20260507194905 64 256 5.0 10.0 0.00 0.00 0.00 64 1009.9
20260507194405 64 256 3.0 7.0 0.00 0.00 0.00 63 1009.9
20260507193905 64 255 5.0 9.0 0.00 0.00 0.00 63 1009.8
20260507193405 64 220 3.0 12.0 0.00 0.00 0.00 63 1009.7
20260507191905 65 233 4.0 10.0 0.00 0.00 0.00 61 1009.6
20260507191404 65 219 5.0 13.0 0.00 0.00 0.00 61 1009.6
20260507190905 65 227 6.0 12.0 0.00 0.00 0.00 61 1009.5
20260507190405 66 232 3.0 13.0 0.00 0.00 0.00 60 1009.4
20260507184904 66 220 7.0 15.0 0.00 0.00 0.00 58 1009.2
20260507184405 66 219 6.0 12.0 0.00 0.00 0.00 57 1009.1
20260507183905 66 222 6.0 14.0 0.00 0.00 0.00 57 1008.9
20260507183405 67 222 7.0 16.0 0.00 0.00 0.00 55 1008.9
20260507181405 68 215 5.0 13.0 0.00 0.00 0.00 55 1008.7
20260507180905 68 217 7.0 14.0 0.00 0.00 0.00 54 1008.6
20260507180405 68 213 4.0 16.0 0.00 0.00 0.00 54 1008.6
20260507174905 69 217 7.0 17.0 0.00 0.00 0.00 52 1008.5
20260507174405 69 228 8.0 15.0 0.00 0.00 0.00 51 1008.5
20260507173904 69 229 6.0 15.0 0.00 0.00 0.00 50 1008.5
20260507173404 70 230 2.0 15.0 0.00 0.00 0.00 50 1008.4
20260507171905 70 211 10.0 16.0 0.00 0.00 0.00 50 1008.2
20260507171404 71 230 3.0 9.0 0.00 0.00 0.00 50 1008.2
20260507170905 70 201 7.0 13.0 0.00 0.00 0.00 50 1008.1
20260507170405 70 211 10.0 14.0 0.00 0.00 0.00 49 1008.1
20260507164904 71 210 7.0 12.0 0.00 0.00 0.00 48 1008.0
20260507164405 71 197 7.0 14.0 0.00 0.00 0.00 46 1007.9
20260507163905 72 199 7.0 13.0 0.00 0.00 0.00 46 1007.9
20260507163404 72 233 6.0 14.0 0.00 0.00 0.00 46 1008.0
20260507161904 71 201 7.0 13.0 0.00 0.00 0.00 44 1007.8
20260507161405 72 196 7.0 13.0 0.00 0.00 0.00 47 1007.8
20260507160905 72 228 6.0 14.0 0.00 0.00 0.00 45 1007.8
20260507160405 73 200 3.0 15.0 0.00 0.00 0.00 46 1007.8
20260507154905 73 205 7.0 14.0 0.00 0.00 0.00 43 1007.8
20260507153905 72 231 5.0 12.0 0.00 0.00 0.00 42 1007.9
20260507153405 72 204 7.0 15.0 0.00 0.00 0.00 42 1007.8
20260507151905 72 198 6.0 10.0 0.00 0.00 0.00 42 1007.8
20260507151405 72 218 5.0 12.0 0.00 0.00 0.00 41 1007.9
20260507150904 72 212 6.0 14.0 0.00 0.00 0.00 43 1008.0
20260507150404 72 206 7.0 15.0 0.00 0.00 0.00 44 1008.0
20260507144905 72 223 5.0 12.0 0.00 0.00 0.00 44 1008.2
20260507144404 72 245 6.0 12.0 0.00 0.00 0.00 45 1008.2
20260507143405 71 195 5.0 16.0 0.00 0.00 0.00 47 1008.2
20260507141905 71 243 5.0 13.0 0.00 0.00 0.00 50 1008.5
20260507141405 70 217 9.0 15.0 0.00 0.00 0.00 51 1008.5
20260507140905 71 197 9.0 13.0 0.00 0.00 0.00 51 1008.6
20260507140406 71 215 6.0 15.0 0.00 0.00 0.00 50 1008.6
20260507134405 71 199 6.0 12.0 0.00 0.00 0.00 52 1008.7
20260507133905 71 218 9.0 14.0 0.00 0.00 0.00 51 1008.8
20260507133405 70 217 6.0 14.0 0.00 0.00 0.00 52 1008.9
20260507131906 70 180 5.0 12.0 0.00 0.00 0.00 52 1009.0
20260507131405 70 227 9.0 15.0 0.00 0.00 0.00 52 1009.0
20260507130404 70 205 6.0 14.0 0.00 0.00 0.00 53 1009.0
20260507124905 70 192 9.0 16.0 0.00 0.00 0.00 52 1009.1
20260507124405 70 242 6.0 12.0 0.00 0.00 0.00 53 1009.1
20260507123904 70 184 8.0 17.0 0.00 0.00 0.00 53 1009.3
20260507123404 70 226 6.0 14.0 0.00 0.00 0.00 53 1009.2
20260507121904 70 212 5.0 9.0 0.00 0.00 0.00 55 1009.4
20260507121405 70 185 6.0 12.0 0.00 0.00 0.00 56 1009.4
20260507120905 69 232 7.0 17.0 0.00 0.00 0.00 56 1009.4
20260507120405 71 216 8.0 15.0 0.00 0.00 0.00 55 1009.5
20260507114905 71 205 6.0 9.0 0.00 0.00 0.00 54 1009.6
20260507114404 71 189 7.0 12.0 0.00 0.00 0.00 53 1009.6
20260507113904 70 180 6.0 12.0 0.00 0.00 0.00 53 1009.7
20260507113404 70 202 2.0 13.0 0.00 0.00 0.00 55 1009.6
20260507111905 69 189 6.0 14.0 0.00 0.00 0.00 57 1009.8
20260507111404 69 183 7.0 13.0 0.00 0.00 0.00 57 1009.8
20260507110905 69 200 6.0 10.0 0.00 0.00 0.00 59 1009.9
20260507110405 69 213 6.0 14.0 0.00 0.00 0.00 59 1009.8
20260507103405 67 199 6.0 12.0 0.00 0.00 0.00 63 1009.9
20260507101904 67 211 8.0 13.0 0.00 0.00 0.00 64 1010.1
20260507101405 67 160 1.0 13.0 0.00 0.00 0.00 65 1010.1
20260507100905 68 185 4.0 12.0 0.00 0.00 0.00 64 1010.1
20260507094905 67 200 2.0 10.0 0.00 0.00 0.00 67 1010.3
20260507094405 66 148 5.0 16.0 0.00 0.00 0.00 66 1010.3
20260507093904 66 137 4.0 15.0 0.00 0.00 0.00 67 1010.3
20260507091905 66 172 3.0 9.0 0.00 0.00 0.00 71 1010.2
20260507091404 65 179 6.0 12.0 0.00 0.00 0.00 71 1010.3
20260507090905 65 185 7.0 15.0 0.00 0.00 0.00 71 1010.3
20260507090405 65 192 7.0 14.0 0.00 0.00 0.00 70 1010.3